QPF
0.00 0.00 0.00 0.00 0.00 0.00 0.00 0.00 0.00 0.00 0.00 0.00 0.00 0.00 0.00 0.01 0.01 0.01 0.00 0.00 0.00 0.00 0.00 0.00 0.00 0.00 0.00 0.00 0.00 0.01 0.02 0.03 0.02 0.02 0.02 0.01 0.01 0.01 0.00 0.00 0.00 0.00 0.00 0.00 0.01 0.01 0.01 0.02 0.02
0.00 0.00 0.00 0.00 0.00 0.00 0.00 0.00 0.00 0.00 0.00 0.00 0.00 0.00 0.01 0.01 0.01 0.01 0.00 0.00 0.00 0.00 0.00 0.00 0.00 0.00 0.00 0.00 0.01 0.01 0.02 0.03 0.03 0.04 0.02 0.01 0.02 0.01 0.01 0.00 0.00 0.00 0.00 0.01 0.01 0.01 0.01 0.01 0.01
0.00 0.00 0.00 0.00 0.00 0.00 0.00 0.00 0.00 0.00 0.00 0.01 0.01 0.00 0.01 0.01 0.01 0.01 0.01 0.00 0.01 0.01 0.01 0.01 0.00 0.00 0.00 0.00 0.00 0.01 0.01 0.01 0.03 0.03 0.01 0.00 0.01 0.01 0.01 0.00 0.00 0.00 0.00 0.01 0.01 0.01 0.01 0.01 0.01
0.00 0.00 0.00 0.00 0.00 0.00 0.00 0.00 0.00 0.00 0.01 0.01 0.01 0.01 0.00 0.00 0.00 0.00 0.00 0.00 0.01 0.01 0.01 0.01 0.01 0.01 0.01 0.00 0.00 0.00 0.01 0.01 0.01 0.01 0.01 0.01 0.00 0.00 0.00 0.00 0.00 0.00 0.00 0.01 0.00 0.00 0.00 0.01 0.01
0.00 0.00 0.00 0.00 0.00 0.00 0.00 0.00 0.00 0.00 0.00 0.00 0.00 0.01 0.01 0.00 0.00 0.01 0.01 0.01 0.01 0.00 0.01 0.01 0.01 0.01 0.01 0.01 0.01 0.00 0.01 0.01 0.01 0.01 0.01 0.01 0.00 0.00 0.00 0.00 0.00 0.00 0.00 0.01 0.01 0.00 0.00 0.01 0.01
0.00 0.00 0.00 0.00 0.00 0.00 0.00 0.00 0.00 0.00 0.00 0.00 0.01 0.01 0.01 0.01 0.01 0.01 0.01 0.01 0.01 0.00 0.01 0.02 0.02 0.01 0.00 0.01 0.03 0.02 0.01 0.01 0.01 0.01 0.01 0.01 0.01 0.01 0.01 0.00 0.00 0.01 0.01 0.01 0.01 0.00 0.00 0.01 0.01
0.00 0.00 0.00 0.00 0.00 0.00 0.00 0.00 0.00 0.00 0.00 0.00 0.01 0.01 0.01 0.01 0.01 0.01 0.01 0.01 0.01 0.01 0.01 0.02 0.04 0.02 0.01 0.01 0.01 0.01 0.02 0.02 0.02 0.02 0.02 0.01 0.01 0.01 0.01 0.01 0.01 0.01 0.01 0.01 0.01 0.01 0.00 0.01 0.01
0.00 0.00 0.00 0.00 0.00 0.00 0.00 0.00 0.00 0.00 0.00 0.00 0.01 0.02 0.03 0.02 0.01 0.01 0.01 0.01 0.00 0.01 0.01 0.02 0.04 0.03 0.01 0.01 0.01 0.02 0.02 0.04 0.04 0.04 0.03 0.02 0.01 0.01 0.01 0.01 0.01 0.01 0.01 0.01 0.01 0.01 0.01 0.01 0.01
0.00 0.00 0.00 0.00 0.00 0.00 0.00 0.00 0.00 0.00 0.00 0.01 0.00 0.01 0.02 0.02 0.01 0.01 0.01 0.01 0.01 0.01 0.01 0.01 0.03 0.04 0.03 0.02 0.02 0.04 0.04 0.05 0.05 0.06 0.06 0.03 0.03 0.03 0.02 0.01 0.02 0.01 0.01 0.01 0.02 0.01 0.01 0.01 0.01
0.00 0.00 0.00 0.00 0.00 0.00 0.00 0.00 0.00 0.00 0.01 0.01 0.02 0.01 0.01 0.01 0.01 0.01 0.01 0.01 0.01 0.01 0.01 0.02 0.03 0.03 0.03 0.02 0.04 0.07 0.07 0.07 0.07 0.07 0.07 0.08 0.09 0.08 0.05 0.04 0.05 0.04 0.03 0.03 0.03 0.03 0.02 0.01 0.01
0.00 0.00 0.00 0.00 0.00 0.00 0.00 0.00 0.00 0.00 0.01 0.01 0.01 0.01 0.01 0.01 0.01 0.01 0.01 0.01 0.02 0.02 0.02 0.03 0.04 0.05 0.04 0.04 0.07 0.10 0.10 0.11 0.12 0.12 0.11 0.11 0.11 0.10 0.09 0.09 0.08 0.07 0.07 0.08 0.08 0.05 0.04 0.03 0.04
0.00 0.00 0.00 0.00 0.00 0.00 0.00 0.00 0.00 0.01 0.01 0.01 0.01 0.01 0.01 0.01 0.02 0.02 0.01 0.01 0.02 0.02 0.02 0.03 0.04 0.04 0.05 0.05 0.07 0.10 0.13 0.13 0.13 0.13 0.11 0.10 0.09 0.09 0.09 0.10 0.11 0.11 0.11 0.12 0.09 0.08 0.08 0.07 0.05
0.00 0.00 0.00 0.00 0.00 0.00 0.00 0.00 0.00 0.00 0.00 0.01 0.01 0.01 0.01 0.02 0.03 0.03 0.02 0.01 0.02 0.03 0.04 0.04 0.05 0.05 0.04 0.05 0.06 0.09 0.10 0.12 0.15 0.16 0.11 0.09 0.07 0.07 0.08 0.09 0.10 0.10 0.11 0.12 0.12 0.10 0.10 0.09 0.08
0.00 0.00 0.00 0.00 0.00 0.00 0.00 0.00 0.00 0.00 0.01 0.01 0.01 0.01 0.01 0.01 0.02 0.03 0.02 0.01 0.03 0.06 0.06 0.04 0.06 0.06 0.06 0.07 0.08 0.10 0.12 0.14 0.16 0.16 0.13 0.12 0.10 0.07 0.07 0.09 0.09 0.10 0.11 0.13 0.13 0.12 0.11 0.12 0.11
0.00 0.00 0.00 0.00 0.00 0.00 0.00 0.00 0.00 0.01 0.00 0.00 0.01 0.01 0.01 0.01 0.01 0.02 0.01 0.01 0.02 0.03 0.03 0.04 0.04 0.05 0.06 0.09 0.13 0.13 0.15 0.17 0.17 0.17 0.16 0.14 0.13 0.11 0.08 0.07 0.06 0.07 0.09 0.10 0.12 0.13 0.13 0.13 0.11
0.00 0.00 0.00 0.00 0.00 0.00 0.00 0.00 0.01 0.01 0.00 0.00 0.01 0.01 0.01 0.01 0.01 0.02 0.02 0.01 0.02 0.02 0.03 0.04 0.04 0.04 0.04 0.06 0.09 0.10 0.11 0.11 0.11 0.11 0.12 0.14 0.13 0.13 0.11 0.09 0.07 0.08 0.10 0.11 0.11 0.13 0.12 0.11 0.12
0.00 0.00 0.00 0.00 0.00 0.00 0.00 0.00 0.01 0.01 0.01 0.01 0.01 0.01 0.01 0.01 0.01 0.02 0.01 0.02 0.02 0.02 0.03 0.05 0.05 0.05 0.05 0.05 0.06 0.08 0.09 0.09 0.09 0.11 0.14 0.15 0.17 0.16 0.15 0.14 0.11 0.10 0.12 0.12 0.11 0.12 0.12 0.13 0.13
0.00 0.00 0.00 0.00 0.00 0.00 0.00 0.00 0.01 0.01 0.01 0.01 0.01 0.01 0.01 0.01 0.01 0.01 0.01 0.02 0.02 0.02 0.04 0.05 0.05 0.04 0.05 0.05 0.06 0.06 0.07 0.07 0.08 0.10 0.14 0.16 0.17 0.19 0.19 0.18 0.15 0.13 0.13 0.13 0.12 0.12 0.13 0.15 0.17
0.00 0.00 0.00 0.00 0.00 0.00 0.00 0.01 0.01 0.01 0.01 0.01 0.01 0.00 0.01 0.01 0.01 0.01 0.01 0.02 0.01 0.01 0.03 0.03 0.04 0.04 0.04 0.04 0.05 0.05 0.06 0.07 0.08 0.08 0.08 0.10 0.11 0.13 0.16 0.17 0.15 0.14 0.14 0.15 0.14 0.13 0.13 0.15 0.16
0.00 0.00 0.00 0.00 0.00 0.00 0.00 0.01 0.01 0.01 0.01 0.01 0.01 0.00 0.00 0.00 0.00 0.01 0.01 0.02 0.01 0.02 0.02 0.02 0.03 0.04 0.04 0.04 0.04 0.04 0.05 0.06 0.07 0.06 0.06 0.07 0.08 0.09 0.11 0.15 0.14 0.12 0.12 0.13 0.15 0.16 0.15 0.15 0.16
0.00 0.00 0.00 0.00 0.00 0.00 0.00 0.01 0.01 0.01 0.01 0.01 0.01 0.00 0.00 0.00 0.00 0.01 0.01 0.01 0.01 0.02 0.02 0.03 0.03 0.03 0.03 0.03 0.05 0.05 0.06 0.06 0.07 0.07 0.06 0.08 0.08 0.08 0.10 0.13 0.13 0.11 0.11 0.11 0.14 0.17 0.18 0.19 0.20
0.00 0.00 0.00 0.00 0.00 0.00 0.00 0.01 0.01 0.01 0.01 0.01 0.01 0.01 0.01 0.01 0.00 0.01 0.01 0.01 0.02 0.02 0.02 0.02 0.02 0.02 0.03 0.04 0.07 0.07 0.07 0.08 0.07 0.07 0.08 0.10 0.10 0.09 0.11 0.15 0.16 0.15 0.12 0.13 0.15 0.18 0.21 0.24 0.24
0.00 0.00 0.00 0.00 0.00 0.00 0.00 0.00 0.00 0.00 0.01 0.01 0.01 0.01 0.01 0.01 0.01 0.01 0.01 0.01 0.02 0.01 0.01 0.01 0.01 0.01 0.02 0.04 0.06 0.07 0.08 0.08 0.08 0.07 0.09 0.09 0.11 0.11 0.12 0.15 0.18 0.17 0.17 0.19 0.20 0.21 0.22 0.27 0.27
0.00 0.00 0.00 0.00 0.00 0.00 0.00 0.00 0.00 0.00 0.01 0.01 0.01 0.01 0.01 0.01 0.01 0.01 0.01 0.01 0.01 0.01 0.00 0.01 0.01 0.01 0.02 0.02 0.03 0.04 0.05 0.07 0.08 0.09 0.10 0.09 0.08 0.09 0.11 0.13 0.15 0.15 0.14 0.15 0.19 0.19 0.20 0.22 0.25
0.00 0.00 0.00 0.00 0.00 0.00 0.00 0.00 0.00 0.00 0.00 0.01 0.02 0.02 0.02 0.02 0.02 0.01 0.01 0.00 0.00 0.01 0.01 0.01 0.01 0.01 0.01 0.02 0.03 0.03 0.04 0.07 0.09 0.09 0.10 0.10 0.09 0.11 0.12 0.12 0.13 0.16 0.16 0.14 0.15 0.16 0.16 0.17 0.18
0.00 0.00 0.00 0.00 0.00 0.00 0.00 0.00 0.00 0.00 0.00 0.01 0.02 0.02 0.01 0.01 0.01 0.01 0.01 0.01 0.01 0.01 0.02 0.02 0.01 0.01 0.01 0.01 0.02 0.03 0.04 0.07 0.09 0.09 0.08 0.07 0.08 0.12 0.15 0.14 0.12 0.15 0.17 0.14 0.13 0.12 0.15 0.15 0.14
0.00 0.00 0.00 0.00 0.00 0.00 0.00 0.00 0.00 0.00 0.00 0.01 0.01 0.01 0.01 0.01 0.01 0.00 0.01 0.01 0.00 0.01 0.02 0.03 0.04 0.03 0.02 0.02 0.02 0.02 0.03 0.03 0.05 0.06 0.06 0.05 0.05 0.07 0.12 0.13 0.13 0.12 0.11 0.11 0.09 0.08 0.09 0.13 0.13
0.00 0.00 0.00 0.00 0.00 0.00 0.00 0.00 0.01 0.00 0.00 0.01 0.01 0.01 0.00 0.01 0.01 0.01 0.01 0.00 0.00 0.01 0.02 0.04 0.05 0.05 0.04 0.03 0.03 0.02 0.02 0.02 0.02 0.03 0.03 0.03 0.04 0.05 0.07 0.07 0.07 0.07 0.07 0.08 0.07 0.06 0.06 0.08 0.11
0.00 0.00 0.00 0.00 0.00 0.00 0.01 0.01 0.00 0.00 0.00 0.00 0.01 0.01 0.01 0.01 0.01 0.01 0.01 0.00 0.01 0.01 0.02 0.03 0.03 0.05 0.04 0.03 0.04 0.03 0.02 0.02 0.02 0.03 0.04 0.03 0.03 0.03 0.04 0.05 0.04 0.04 0.05 0.05 0.06 0.05 0.05 0.06 0.07
0.00 0.00 0.00 0.01 0.01 0.01 0.01 0.01 0.00 0.00 0.00 0.00 0.00 0.01 0.01 0.01 0.01 0.01 0.01 0.01 0.01 0.00 0.01 0.01 0.02 0.03 0.04 0.04 0.05 0.05 0.04 0.03 0.03 0.03 0.03 0.03 0.03 0.03 0.03 0.04 0.03 0.03 0.04 0.04 0.05 0.04 0.05 0.07 0.07
MSLP
1011.94 1012.23 1012.60 1012.95 1013.22 1013.34 1013.31 1013.13 1012.83 1012.48 1012.13 1011.80 1011.53 1011.31 1011.12 1010.95 1010.79 1010.65 1010.57 1010.58 1010.73 1011.03 1011.49 1012.06 1012.70 1013.32 1013.87 1014.29 1014.58 1014.77 1014.89 1015.03 1015.23 1015.52 1015.90 1016.34 1016.79 1017.19 1017.49 1017.66 1017.73 1017.73 1017.71 1017.74 1017.83 1018.01 1018.25 1018.51 1018.74
1011.83 1012.20 1012.61 1012.98 1013.23 1013.31 1013.20 1012.92 1012.52 1012.06 1011.61 1011.21 1010.89 1010.65 1010.48 1010.36 1010.28 1010.25 1010.28 1010.42 1010.69 1011.09 1011.63 1012.26 1012.92 1013.56 1014.11 1014.54 1014.85 1015.06 1015.23 1015.40 1015.63 1015.95 1016.33 1016.74 1017.14 1017.46 1017.67 1017.77 1017.77 1017.72 1017.69 1017.73 1017.86 1018.08 1018.36 1018.65 1018.90
1011.81 1012.21 1012.63 1012.98 1013.18 1013.20 1013.01 1012.65 1012.18 1011.65 1011.14 1010.71 1010.38 1010.15 1010.01 1009.95 1009.95 1010.02 1010.16 1010.39 1010.74 1011.21 1011.80 1012.46 1013.15 1013.80 1014.36 1014.81 1015.14 1015.39 1015.60 1015.81 1016.07 1016.39 1016.75 1017.12 1017.45 1017.70 1017.84 1017.87 1017.83 1017.77 1017.75 1017.81 1017.98 1018.23 1018.54 1018.84 1019.08
1011.90 1012.30 1012.68 1012.98 1013.12 1013.06 1012.80 1012.38 1011.86 1011.30 1010.78 1010.36 1010.05 1009.87 1009.79 1009.79 1009.86 1010.00 1010.21 1010.50 1010.90 1011.41 1012.02 1012.69 1013.37 1014.03 1014.60 1015.06 1015.42 1015.71 1015.95 1016.19 1016.46 1016.76 1017.10 1017.42 1017.69 1017.88 1017.97 1017.98 1017.93 1017.89 1017.91 1018.02 1018.22 1018.50 1018.82 1019.10 1019.29
1012.09 1012.45 1012.78 1013.00 1013.05 1012.91 1012.59 1012.13 1011.58 1011.03 1010.54 1010.16 1009.92 1009.79 1009.78 1009.85 1009.98 1010.17 1010.42 1010.74 1011.16 1011.67 1012.26 1012.91 1013.58 1014.22 1014.79 1015.26 1015.64 1015.94 1016.20 1016.45 1016.71 1017.00 1017.30 1017.58 1017.81 1017.97 1018.05 1018.08 1018.07 1018.09 1018.17 1018.33 1018.58 1018.87 1019.16 1019.40 1019.53
1012.33 1012.64 1012.89 1013.01 1012.97 1012.76 1012.38 1011.88 1011.34 1010.82 1010.39 1010.08 1009.91 1009.87 1009.93 1010.06 1010.24 1010.47 1010.73 1011.05 1011.45 1011.93 1012.49 1013.10 1013.73 1014.34 1014.89 1015.35 1015.73 1016.04 1016.30 1016.54 1016.79 1017.06 1017.32 1017.57 1017.79 1017.95 1018.06 1018.13 1018.20 1018.30 1018.46 1018.69 1018.96 1019.26 1019.52 1019.69 1019.75
1012.54 1012.78 1012.95 1012.98 1012.84 1012.55 1012.13 1011.62 1011.10 1010.63 1010.27 1010.04 1009.96 1010.00 1010.13 1010.32 1010.54 1010.79 1011.05 1011.35 1011.71 1012.14 1012.65 1013.20 1013.78 1014.34 1014.86 1015.30 1015.67 1015.97 1016.22 1016.45 1016.68 1016.93 1017.17 1017.41 1017.63 1017.82 1017.97 1018.12 1018.27 1018.46 1018.70 1018.98 1019.28 1019.57 1019.78 1019.90 1019.88
1012.65 1012.82 1012.90 1012.84 1012.63 1012.28 1011.82 1011.31 1010.82 1010.41 1010.12 1009.98 1009.98 1010.11 1010.31 1010.55 1010.80 1011.05 1011.30 1011.57 1011.88 1012.25 1012.69 1013.18 1013.70 1014.21 1014.69 1015.11 1015.46 1015.74 1015.99 1016.21 1016.44 1016.67 1016.90 1017.14 1017.37 1017.59 1017.80 1018.01 1018.24 1018.50 1018.80 1019.13 1019.45 1019.72 1019.89 1019.95 1019.87
1012.61 1012.72 1012.73 1012.60 1012.33 1011.93 1011.46 1010.96 1010.50 1010.15 1009.93 1009.87 1009.95 1010.15 1010.41 1010.69 1010.96 1011.21 1011.44 1011.68 1011.94 1012.25 1012.62 1013.04 1013.50 1013.96 1014.40 1014.80 1015.13 1015.42 1015.66 1015.89 1016.11 1016.35 1016.59 1016.83 1017.08 1017.32 1017.56 1017.82 1018.09 1018.40 1018.74 1019.08 1019.40 1019.66 1019.81 1019.82 1019.71
1012.44 1012.50 1012.44 1012.26 1011.95 1011.54 1011.07 1010.59 1010.18 1009.88 1009.73 1009.74 1009.89 1010.14 1010.45 1010.76 1011.05 1011.30 1011.51 1011.70 1011.91 1012.16 1012.47 1012.83 1013.23 1013.65 1014.06 1014.43 1014.76 1015.05 1015.32 1015.56 1015.80 1016.05 1016.30 1016.56 1016.81 1017.06 1017.31 1017.57 1017.86 1018.17 1018.50 1018.84 1019.16 1019.40 1019.54 1019.55 1019.43
1012.18 1012.20 1012.10 1011.89 1011.57 1011.16 1010.71 1010.27 1009.90 1009.67 1009.58 1009.65 1009.86 1010.16 1010.50 1010.83 1011.13 1011.36 1011.55 1011.71 1011.87 1012.07 1012.31 1012.62 1012.97 1013.35 1013.73 1014.09 1014.43 1014.73 1015.02 1015.29 1015.57 1015.84 1016.11 1016.38 1016.63 1016.87 1017.10 1017.33 1017.58 1017.85 1018.16 1018.47 1018.77 1019.02 1019.17 1019.21 1019.12
1011.93 1011.91 1011.79 1011.57 1011.25 1010.87 1010.46 1010.07 1009.77 1009.60 1009.58 1009.70 1009.96 1010.29 1010.66 1011.00 1011.29 1011.51 1011.67 1011.80 1011.92 1012.06 1012.25 1012.51 1012.81 1013.15 1013.51 1013.86 1014.20 1014.52 1014.83 1015.14 1015.45 1015.75 1016.05 1016.32 1016.56 1016.77 1016.95 1017.13 1017.31 1017.52 1017.77 1018.05 1018.34 1018.61 1018.80 1018.90 1018.88
1011.75 1011.70 1011.57 1011.36 1011.07 1010.73 1010.38 1010.07 1009.84 1009.74 1009.79 1009.97 1010.27 1010.63 1011.01 1011.36 1011.64 1011.84 1011.98 1012.06 1012.14 1012.24 1012.38 1012.59 1012.85 1013.15 1013.47 1013.80 1014.13 1014.46 1014.78 1015.12 1015.45 1015.78 1016.09 1016.36 1016.59 1016.76 1016.89 1017.00 1017.10 1017.24 1017.43 1017.68 1017.96 1018.26 1018.52 1018.70 1018.78
1011.71 1011.64 1011.51 1011.31 1011.07 1010.79 1010.52 1010.29 1010.16 1010.14 1010.26 1010.50 1010.84 1011.24 1011.63 1011.97 1012.24 1012.42 1012.52 1012.57 1012.61 1012.67 1012.77 1012.92 1013.13 1013.38 1013.66 1013.95 1014.25 1014.55 1014.86 1015.19 1015.53 1015.86 1016.18 1016.45 1016.66 1016.81 1016.89 1016.94 1016.98 1017.05 1017.19 1017.42 1017.71 1018.05 1018.39 1018.68 1018.87
1011.80 1011.72 1011.59 1011.42 1011.22 1011.02 1010.84 1010.71 1010.68 1010.76 1010.96 1011.27 1011.66 1012.08 1012.48 1012.83 1013.08 1013.24 1013.31 1013.33 1013.33 1013.35 1013.41 1013.52 1013.67 1013.86 1014.08 1014.30 1014.53 1014.77 1015.03 1015.31 1015.62 1015.93 1016.24 1016.51 1016.72 1016.85 1016.91 1016.92 1016.92 1016.96 1017.07 1017.28 1017.59 1017.98 1018.41 1018.80 1019.11
1011.99 1011.88 1011.76 1011.62 1011.49 1011.36 1011.28 1011.26 1011.33 1011.51 1011.80 1012.19 1012.63 1013.08 1013.50 1013.85 1014.09 1014.23 1014.28 1014.28 1014.25 1014.24 1014.26 1014.32 1014.41 1014.53 1014.66 1014.79 1014.92 1015.06 1015.22 1015.42 1015.66 1015.93 1016.21 1016.47 1016.68 1016.83 1016.89 1016.91 1016.91 1016.93 1017.04 1017.25 1017.59 1018.03 1018.52 1019.01 1019.43
1012.19 1012.08 1011.96 1011.86 1011.78 1011.74 1011.75 1011.83 1012.01 1012.29 1012.67 1013.13 1013.63 1014.12 1014.57 1014.92 1015.16 1015.30 1015.34 1015.31 1015.27 1015.23 1015.22 1015.23 1015.27 1015.31 1015.35 1015.36 1015.36 1015.37 1015.40 1015.48 1015.63 1015.83 1016.06 1016.31 1016.53 1016.70 1016.81 1016.86 1016.88 1016.94 1017.05 1017.28 1017.64 1018.10 1018.64 1019.20 1019.70
1012.34 1012.22 1012.13 1012.07 1012.05 1012.08 1012.17 1012.35 1012.62 1012.99 1013.45 1013.98 1014.53 1015.07 1015.54 1015.92 1016.17 1016.31 1016.35 1016.33 1016.27 1016.22 1016.18 1016.16 1016.14 1016.11 1016.05 1015.94 1015.81 1015.66 1015.55 1015.49 1015.51 1015.62 1015.81 1016.04 1016.27 1016.48 1016.65 1016.76 1016.84 1016.92 1017.07 1017.31 1017.66 1018.13 1018.68 1019.26 1019.80
1012.39 1012.29 1012.23 1012.22 1012.25 1012.34 1012.50 1012.75 1013.08 1013.52 1014.04 1014.63 1015.23 1015.81 1016.32 1016.73 1017.01 1017.17 1017.22 1017.21 1017.16 1017.10 1017.05 1017.00 1016.94 1016.84 1016.69 1016.47 1016.21 1015.92 1015.66 1015.46 1015.36 1015.37 1015.50 1015.71 1015.96 1016.21 1016.43 1016.61 1016.75 1016.88 1017.05 1017.28 1017.62 1018.05 1018.58 1019.14 1019.68
1012.35 1012.29 1012.27 1012.30 1012.39 1012.53 1012.73 1013.02 1013.39 1013.86 1014.41 1015.03 1015.67 1016.29 1016.84 1017.29 1017.61 1017.80 1017.89 1017.90 1017.87 1017.81 1017.76 1017.69 1017.59 1017.45 1017.22 1016.92 1016.56 1016.16 1015.77 1015.45 1015.23 1015.16 1015.22 1015.40 1015.66 1015.94 1016.22 1016.45 1016.64 1016.81 1016.98 1017.19 1017.47 1017.85 1018.31 1018.82 1019.33
1012.27 1012.26 1012.30 1012.38 1012.51 1012.68 1012.90 1013.19 1013.55 1014.02 1014.57 1015.19 1015.85 1016.50 1017.09 1017.59 1017.96 1018.21 1018.34 1018.38 1018.37 1018.33 1018.28 1018.20 1018.08 1017.90 1017.64 1017.29 1016.86 1016.39 1015.92 1015.51 1015.21 1015.06 1015.07 1015.21 1015.46 1015.75 1016.06 1016.33 1016.54 1016.72 1016.87 1017.04 1017.25 1017.54 1017.90 1018.33 1018.78
1012.20 1012.27 1012.38 1012.53 1012.69 1012.87 1013.07 1013.32 1013.64 1014.06 1014.57 1015.17 1015.83 1016.50 1017.14 1017.69 1018.13 1018.44 1018.62 1018.71 1018.73 1018.70 1018.64 1018.56 1018.43 1018.24 1017.97 1017.60 1017.15 1016.65 1016.15 1015.70 1015.35 1015.14 1015.10 1015.20 1015.42 1015.70 1016.00 1016.26 1016.48 1016.63 1016.75 1016.86 1016.99 1017.18 1017.44 1017.77 1018.15
1012.24 1012.40 1012.59 1012.79 1012.97 1013.14 1013.29 1013.48 1013.72 1014.05 1014.49 1015.05 1015.69 1016.38 1017.06 1017.67 1018.19 1018.57 1018.82 1018.95 1019.00 1018.98 1018.92 1018.83 1018.69 1018.50 1018.24 1017.88 1017.46 1016.97 1016.48 1016.02 1015.66 1015.43 1015.34 1015.39 1015.56 1015.80 1016.05 1016.29 1016.46 1016.58 1016.65 1016.69 1016.74 1016.83 1016.99 1017.23 1017.54
1012.42 1012.67 1012.94 1013.18 1013.37 1013.50 1013.60 1013.69 1013.82 1014.05 1014.41 1014.91 1015.52 1016.22 1016.94 1017.63 1018.22 1018.68 1019.00 1019.18 1019.25 1019.25 1019.18 1019.08 1018.93 1018.74 1018.50 1018.18 1017.79 1017.36 1016.91 1016.49 1016.13 1015.88 1015.76 1015.76 1015.86 1016.03 1016.22 1016.39 1016.51 1016.57 1016.58 1016.56 1016.55 1016.56 1016.65 1016.81 1017.06
1012.75 1013.08 1013.41 1013.68 1013.86 1013.95 1013.96 1013.95 1013.97 1014.09 1014.36 1014.79 1015.39 1016.10 1016.86 1017.62 1018.29 1018.84 1019.23 1019.46 1019.56 1019.56 1019.49 1019.36 1019.20 1019.01 1018.78 1018.50 1018.17 1017.81 1017.42 1017.04 1016.71 1016.46 1016.31 1016.25 1016.28 1016.37 1016.47 1016.57 1016.62 1016.62 1016.58 1016.51 1016.45 1016.42 1016.45 1016.56 1016.76
1013.18 1013.57 1013.93 1014.21 1014.37 1014.40 1014.34 1014.22 1014.14 1014.16 1014.35 1014.73 1015.31 1016.03 1016.85 1017.68 1018.44 1019.07 1019.53 1019.82 1019.95 1019.95 1019.86 1019.71 1019.54 1019.34 1019.12 1018.87 1018.59 1018.29 1017.97 1017.65 1017.35 1017.11 1016.93 1016.82 1016.77 1016.77 1016.79 1016.80 1016.78 1016.73 1016.66 1016.56 1016.48 1016.43 1016.44 1016.52 1016.69
1013.63 1014.04 1014.41 1014.68 1014.80 1014.78 1014.64 1014.45 1014.29 1014.24 1014.37 1014.72 1015.29 1016.04 1016.91 1017.81 1018.65 1019.36 1019.89 1020.23 1020.39 1020.40 1020.31 1020.14 1019.94 1019.73 1019.51 1019.28 1019.05 1018.79 1018.53 1018.26 1017.99 1017.76 1017.56 1017.41 1017.29 1017.21 1017.15 1017.09 1017.02 1016.94 1016.84 1016.74 1016.66 1016.61 1016.62 1016.69 1016.83
1014.03 1014.42 1014.76 1014.98 1015.06 1014.99 1014.81 1014.57 1014.37 1014.29 1014.40 1014.75 1015.33 1016.11 1017.03 1017.98 1018.89 1019.67 1020.27 1020.67 1020.86 1020.89 1020.79 1020.61 1020.40 1020.17 1019.94 1019.73 1019.52 1019.30 1019.08 1018.85 1018.61 1018.39 1018.18 1018.00 1017.84 1017.70 1017.59 1017.47 1017.37 1017.26 1017.16 1017.07 1017.00 1016.97 1016.98 1017.04 1017.16
1014.31 1014.63 1014.90 1015.07 1015.10 1015.00 1014.80 1014.56 1014.36 1014.30 1014.43 1014.80 1015.41 1016.23 1017.18 1018.19 1019.15 1019.98 1020.63 1021.07 1021.31 1021.36 1021.28 1021.10 1020.88 1020.65 1020.42 1020.21 1020.01 1019.81 1019.62 1019.41 1019.21 1019.00 1018.80 1018.60 1018.42 1018.26 1018.11 1017.98 1017.86 1017.74 1017.65 1017.57 1017.52 1017.50 1017.52 1017.57 1017.66
1014.43 1014.65 1014.83 1014.93 1014.92 1014.81 1014.62 1014.42 1014.28 1014.28 1014.47 1014.89 1015.55 1016.39 1017.37 1018.40 1019.38 1020.25 1020.93 1021.42 1021.69 1021.78 1021.73 1021.57 1021.36 1021.14 1020.91 1020.70 1020.51 1020.33 1020.15 1019.98 1019.79 1019.61 1019.43 1019.25 1019.08 1018.92 1018.77 1018.64 1018.51 1018.41 1018.32 1018.25 1018.21 1018.19 1018.20 1018.23 1018.28
Thickness
5781 5787 5792 5789 5779 5773 5775 5784 5788 5790 5797 5808 5811 5809 5806 5804 5797 5789 5809 5818 5816 5811 5802 5793 5790 5788 5786 5784 5783 5781 5778 5776 5773 5770 5768 5766 5764 5762 5761 5760 5759 5758 5757 5756 5755 5754 5752 5751 5749
5784 5787 5785 5781 5769 5764 5771 5784 5784 5790 5799 5808 5810 5807 5804 5804 5808 5806 5809 5811 5810 5805 5798 5793 5786 5784 5782 5780 5779 5777 5775 5772 5769 5767 5765 5763 5762 5760 5759 5757 5756 5756 5755 5753 5752 5751 5750 5748 5747
5781 5783 5778 5772 5766 5770 5773 5782 5786 5794 5803 5804 5804 5807 5803 5799 5804 5806 5808 5808 5804 5799 5794 5788 5782 5780 5778 5776 5775 5773 5771 5769 5766 5764 5762 5760 5759 5757 5756 5755 5754 5753 5752 5751 5750 5748 5747 5746 5744
5777 5774 5772 5765 5763 5774 5778 5783 5788 5791 5798 5804 5802 5798 5802 5803 5806 5807 5806 5804 5799 5794 5790 5783 5778 5775 5773 5772 5770 5769 5767 5765 5762 5760 5759 5757 5756 5754 5753 5752 5751 5750 5749 5748 5747 5745 5744 5743 5741
5775 5769 5758 5758 5764 5774 5780 5785 5788 5787 5791 5797 5799 5793 5792 5799 5806 5805 5801 5799 5795 5792 5787 5780 5773 5771 5769 5767 5765 5763 5762 5760 5758 5756 5755 5753 5752 5751 5750 5749 5747 5746 5745 5745 5743 5742 5741 5740 5739
5764 5764 5754 5754 5761 5771 5779 5785 5786 5787 5792 5796 5796 5791 5788 5796 5798 5797 5797 5796 5794 5790 5785 5775 5768 5766 5764 5762 5760 5759 5758 5756 5754 5753 5751 5749 5748 5747 5746 5745 5744 5743 5742 5741 5740 5739 5737 5736 5735
5759 5756 5756 5759 5758 5763 5772 5783 5783 5786 5788 5793 5799 5788 5785 5789 5793 5795 5794 5793 5791 5787 5782 5774 5767 5763 5759 5758 5756 5754 5753 5751 5750 5748 5747 5745 5744 5742 5741 5741 5740 5739 5738 5737 5736 5735 5734 5733 5732
5763 5757 5751 5754 5754 5759 5773 5780 5784 5786 5785 5796 5798 5786 5780 5782 5789 5791 5789 5787 5785 5782 5779 5774 5769 5764 5759 5756 5751 5749 5748 5746 5745 5743 5742 5741 5740 5739 5737 5737 5736 5735 5735 5734 5733 5732 5731 5730 5730
5757 5748 5746 5751 5753 5759 5772 5773 5778 5787 5786 5787 5791 5789 5787 5785 5786 5783 5779 5777 5775 5774 5773 5772 5768 5763 5761 5758 5751 5747 5744 5742 5740 5739 5738 5737 5739 5739 5736 5736 5733 5732 5732 5731 5730 5729 5728 5727 5727
5748 5743 5747 5755 5760 5762 5768 5769 5773 5778 5777 5776 5778 5780 5782 5780 5778 5775 5771 5768 5767 5765 5766 5767 5764 5760 5758 5756 5750 5747 5744 5741 5740 5740 5738 5737 5739 5738 5737 5734 5731 5729 5728 5728 5727 5726 5725 5725 5728
5745 5743 5748 5753 5760 5762 5763 5766 5774 5774 5767 5770 5769 5770 5772 5773 5772 5771 5768 5765 5762 5760 5758 5759 5758 5755 5755 5751 5747 5746 5744 5740 5739 5738 5736 5735 5735 5734 5734 5732 5729 5727 5726 5727 5725 5724 5727 5727 5729
5740 5742 5747 5752 5757 5758 5760 5762 5765 5765 5763 5771 5772 5770 5767 5765 5765 5764 5761 5758 5756 5753 5751 5752 5750 5748 5747 5746 5743 5741 5740 5737 5737 5734 5732 5732 5732 5732 5732 5730 5731 5728 5727 5726 5726 5725 5726 5725 5725
5736 5739 5746 5752 5756 5758 5757 5757 5755 5755 5763 5767 5766 5763 5760 5759 5757 5756 5755 5753 5750 5746 5745 5744 5743 5741 5739 5738 5736 5736 5734 5734 5732 5728 5727 5728 5728 5728 5729 5728 5726 5726 5726 5724 5723 5723 5722 5721 5721
5738 5740 5744 5749 5751 5751 5750 5751 5751 5748 5757 5758 5757 5755 5753 5750 5748 5746 5744 5742 5741 5738 5737 5737 5735 5734 5732 5731 5730 5730 5729 5727 5727 5724 5723 5722 5723 5723 5723 5722 5722 5722 5722 5722 5720 5719 5719 5717 5717
5739 5735 5739 5744 5747 5749 5749 5738 5740 5745 5751 5748 5747 5745 5742 5741 5739 5735 5734 5732 5732 5731 5730 5728 5728 5726 5725 5724 5724 5724 5722 5721 5719 5718 5717 5716 5717 5717 5717 5718 5717 5718 5717 5716 5715 5715 5714 5714 5713
5735 5733 5731 5736 5743 5745 5743 5730 5734 5742 5743 5739 5738 5736 5732 5730 5729 5727 5726 5724 5723 5723 5721 5721 5721 5719 5718 5717 5716 5716 5715 5713 5711 5710 5711 5710 5710 5710 5711 5712 5713 5712 5712 5712 5712 5711 5711 5710 5709
5727 5730 5731 5729 5740 5742 5742 5729 5729 5737 5737 5731 5729 5727 5725 5722 5720 5718 5717 5716 5714 5714 5713 5712 5711 5711 5710 5709 5708 5707 5706 5704 5703 5702 5703 5703 5703 5704 5704 5705 5705 5705 5706 5706 5707 5707 5706 5704 5703
5724 5729 5726 5727 5733 5738 5734 5725 5724 5728 5729 5725 5722 5719 5716 5713 5710 5710 5709 5708 5706 5705 5704 5703 5703 5702 5701 5701 5700 5700 5698 5697 5696 5695 5695 5695 5696 5696 5697 5697 5697 5699 5700 5700 5701 5700 5700 5699 5698
5727 5726 5723 5724 5731 5732 5726 5719 5718 5720 5721 5718 5715 5713 5710 5705 5704 5703 5701 5700 5698 5696 5695 5693 5693 5693 5693 5692 5692 5691 5690 5689 5689 5689 5688 5688 5688 5689 5689 5690 5691 5692 5694 5695 5696 5695 5694 5693 5693
5722 5721 5720 5720 5725 5725 5719 5713 5714 5715 5713 5712 5709 5706 5704 5700 5697 5695 5694 5692 5690 5687 5686 5685 5683 5683 5684 5684 5683 5682 5682 5681 5681 5681 5681 5680 5680 5681 5684 5684 5685 5686 5687 5688 5689 5689 5688 5689 5689
5719 5723 5722 5718 5718 5721 5716 5707 5707 5707 5709 5707 5705 5702 5698 5693 5690 5687 5684 5682 5680 5678 5676 5675 5674 5673 5674 5674 5675 5674 5673 5673 5673 5673 5673 5672 5673 5674 5675 5676 5677 5678 5680 5681 5682 5684 5684 5682 5684
5715 5725 5723 5718 5716 5715 5714 5708 5709 5706 5701 5698 5696 5692 5689 5686 5682 5678 5675 5672 5670 5668 5667 5666 5665 5664 5664 5665 5666 5665 5665 5664 5664 5664 5664 5664 5665 5666 5667 5668 5669 5670 5673 5674 5676 5678 5678 5677 5677
5719 5726 5723 5720 5718 5714 5712 5709 5713 5708 5698 5694 5690 5686 5682 5678 5673 5668 5665 5663 5660 5659 5658 5657 5656 5655 5655 5656 5656 5657 5657 5656 5657 5656 5655 5656 5657 5658 5659 5660 5661 5662 5664 5665 5667 5669 5670 5671 5671
5720 5718 5716 5717 5718 5700 5711 5705 5709 5709 5704 5697 5688 5680 5673 5668 5663 5659 5657 5655 5652 5651 5650 5648 5647 5646 5645 5646 5646 5646 5646 5646 5646 5646 5647 5648 5648 5649 5650 5651 5652 5653 5655 5656 5659 5661 5662 5664 5664
5716 5709 5699 5697 5699 5702 5710 5702 5706 5707 5704 5698 5686 5674 5665 5659 5654 5650 5648 5645 5642 5640 5639 5638 5637 5636 5635 5635 5636 5636 5635 5636 5636 5636 5637 5638 5639 5639 5639 5641 5642 5643 5645 5647 5649 5651 5654 5655 5656
5714 5712 5697 5688 5692 5703 5702 5699 5703 5699 5694 5690 5682 5670 5659 5651 5646 5641 5637 5635 5632 5630 5628 5627 5626 5625 5625 5625 5624 5625 5625 5625 5625 5624 5626 5627 5628 5628 5628 5630 5631 5633 5635 5637 5639 5642 5644 5645 5646
5710 5712 5718 5705 5702 5696 5701 5701 5692 5687 5681 5676 5668 5660 5651 5644 5637 5632 5629 5626 5622 5619 5617 5616 5615 5614 5614 5614 5613 5613 5613 5613 5613 5613 5615 5615 5615 5616 5617 5619 5621 5623 5625 5626 5629 5631 5633 5635 5637
5716 5713 5704 5699 5683 5681 5692 5694 5698 5683 5675 5667 5660 5653 5645 5637 5630 5624 5620 5617 5613 5610 5608 5606 5604 5603 5603 5603 5603 5602 5602 5602 5602 5603 5603 5603 5603 5604 5606 5609 5611 5613 5614 5616 5618 5621 5622 5624 5625
5702 5702 5700 5701 5696 5682 5678 5688 5699 5693 5684 5671 5661 5652 5641 5631 5623 5617 5613 5609 5606 5603 5601 5598 5595 5594 5593 5592 5591 5591 5590 5590 5591 5590 5590 5591 5592 5593 5595 5597 5599 5601 5602 5604 5606 5609 5611 5612 5613
5704 5701 5697 5683 5683 5686 5682 5685 5690 5689 5684 5672 5660 5647 5635 5625 5617 5611 5606 5601 5598 5595 5592 5589 5587 5584 5583 5582 5581 5580 5579 5579 5579 5578 5578 5580 5581 5582 5584 5586 5587 5589 5591 5593 5595 5597 5598 5600 5602